{"data":{"norad_id":49139,"intl_designator":"2021-082K","name":"STARLINK-3057","alt_names":[],"object_type":"PAYLOAD","status":"ACTIVE","operator":null,"country":"US","launch_date":"2021-09-14","launch_site_code":"AFWTR","launch_vehicle":null,"mission":null,"orbit_class":"UNKNOWN","rcs_meters":null,"size_class":null,"mass_kg":null,"dimensions":null,"purposes":["comms"],"wikipedia_slug":null,"has_3d_model":false,"image_url":null,"decayed_at":null,"tle_current":{"epoch":"2026-09-20T04:00:03.000096Z","epoch_age_seconds":70141,"freshness":"FRESH","line1":"1 49139U 21082K   26263.16670139  .00150152  00000+0  19556-2 0  9992","line2":"2 49139  69.9995 110.5996 0003500 273.9941  78.6105 15.58083156  5935","mean_motion":15.58083156,"eccentricity":0.00035,"inclination_deg":69.9995,"raan_deg":110.5996,"arg_perigee_deg":273.9941,"mean_anomaly_deg":78.6105,"bstar":0.0019556,"rev_number":593,"period_min":92.421254568777,"perigee_km":390.83508794658,"apogee_km":395.57502738694,"semimajor_km":6771.3420576668,"source":"CELESTRAK","updated_at":"2026-09-20T09:00:39.248055Z"}}}